カタログに戻る

COSMOS 839 DEB

運用中LEO
NORAD 12543·DEBRIS·🇷🇺 Russia

打ち上げ Jul 8, 1976 から Plesetsk Cosmodrome

Loading…

次のパス (今後24時間)

TLE

最新Source: Space-Track

元期: Sep 14, 2026, 09:09 UTC

1 12543U 76067BA  26257.38136019 -.00000125  00000-0 -24341-3 0  9991
2 12543  66.0304  21.4601 0627593  37.8364 356.1361 12.44566426268981

AllMySatでCOSMOS 839 DEBをリアルタイム追跡

Download on the App Store